Regional Weather Roundup
Issued by NWS

Home | Current Version | Previous Version | Graphics & Text | Print | Product List | Glossary On
Versions: 1 2 3 4 5 6 7 8 9 10 11 12 13 14 15 16 17 18 19 20 21 22 23 24 25 26 27 28 29 30 31 32 33 34 35 36 37 38 39 40 41 42 43 44 45 46 47 48 49 50
000
ASUS45 KCYS 270210
RWRWY

WYOMING REGIONAL WEATHER ROUNDUP
NATIONAL WEATHER SERVICE CHEYENNE WY
700 PM MST THU FEB 26 2015

NOTE:  "FAIR" INDICATES FEW OR NO CLOUDS BELOW 12,000 FEET
WITH NO SIGNIFICANT WEATHER AND/OR OBSTRUCTIONS TO VISIBILITY.

WYZ001-270300-
YELLOWSTONE NATIONAL PARK

CITY           SKY/WX    TMP DP  RH WIND       PRES   REMARKS
LK YELLOWSTONE   N/A     10  -3  55 CALM      29.89R
W YELLOWSTONE  NOT AVBL

$$
WYZ002>013-054>058-071-098>099-270300-
NORTHERN WYOMING

CITY           SKY/WX    TMP DP  RH WIND       PRES   REMARKS
JACKSON        CLEAR     18  12  79 CALM      29.88S
CODY           CLOUDY     7   5  92 N8        30.11S WCI  -6
GREYBULL       MOCLDY    17   4  56 NW7       30.19S WCI   8
WORLAND        CLOUDY    17  11  77 CALM      30.17S
SHERIDAN       FAIR       2  -5  72 S3        30.24F
BUFFALO        CLOUDY     2  -2  83 CALM      30.17F
GILLETTE       FAIR      -8 -12  83 CALM      30.24S
HULETT         FAIR      -4  -9  77 MISG      30.27F
NEWCASTLE      FAIR       7   1  78 S10       30.28R WCI  -8

$$
WYZ014>020-022>026-101>103-270300-
CENTRAL WYOMING

CITY           SKY/WX    TMP DP  RH WIND       PRES   REMARKS
BIG PINEY      CLOUDY    19  10  68 SE13      29.91R WCI   6
PINEDALE       LGT SNOW  18  12  79 SE12      29.91R WCI   5
DUBOIS         FLURRIES   5   3  92 SE8       29.95S WCI  -8
LANDER         CLOUDY    11   7  84 CALM      30.07S FOG
RIVERTON       LGT SNOW  10   5  80 NE8       30.09S WCI  -2
CASPER         FAIR       7  -1  70 NE9       30.13S WCI  -7
DOUGLAS        FAIR       5   1  83 E6        30.19S WCI  -6

$$
WYZ021-027>030-104>119-270300-
SOUTHERN WYOMING

CITY           SKY/WX    TMP DP  RH WIND       PRES   REMARKS
EVANSTON       LGT SNOW  24  21  88 E5        29.87R FOG     WCI  18
FORT BRIDGER   LGT SNOW  25  24  98 E6        29.90S WCI  18
ROCK SPRINGS   CLOUDY    11   6  81 NE23      29.94R WCI  -9
DIXON          CLOUDY    22  14  71 NE13      29.90S WCI  10
RAWLINS        CLOUDY    10   3  73 NE15      29.97R WCI  -7
SARATOGA       CLOUDY    16   9  73 W7        29.92R WCI   6
LARAMIE        CLOUDY     6   0  76 SE12      29.96R WCI  -9
CHEYENNE       LGT SNOW   8   3  80 SE12      30.09R WCI  -7
TORRINGTON     MOCLDY    11   4  73 E9        30.25S WCI  -2
PINE BLUFFS    LGT SNOW  12   9  85 E8        30.19R WCI   1

$$


USA.gov is the U.S. government's official web portal to all federal, state and local government web resources and services.